Flag for U.S.A. Weather past 2 weeks in Carson City, Nevada, U.S.A.

Now
64 °F

Passing clouds.


Feels Like: 64 °F
Forecast: 34 / 75 °F
Wind: 3 mph from North

Location: Reno Tahoe International Airport

Current Time: Apr 28, 2015 at 11:23:12 AM

Latest Report: Apr 28, 2015 at 10:55 AM


Visibility: 10 mi

Pressure: 30.03 "Hg

Humidity: 25%

Dew point: 27 °F

Location of Carson CityLocation

Historic Weather in Carson City — Graph

°F

Carson City temperature yesterday

Maximum temperature yesterday: 70 °F (at 2:55 PM)
Minimum temperature yesterday: 42 °F (at 4:55 AM)
Average temperature yesterday: 57 °F

Past Weeks' High & Low Weather Summary

 TemperatureHumidityPressure
High79 °F (Apr 20, 3:55 PM)89% (Apr 25, 8:55 AM)30.32 "Hg (Apr 25, 8:55 AM)
Low28 °F (Apr 15, 6:55 AM)5% (Apr 17, 5:55 PM)29.64 "Hg (Apr 23, 4:55 PM)
Average54 °F34%29.96 "Hg
* Reported Apr 13 9:55 AM — Apr 28 9:55 AM, Carson City, Weather by CustomWeather, © 2015

Note: Actual official high and low records may vary slightly from our data, if they occured in-between our weather recording intervals... More about our weather records

Advertising

Carson City weather history for previous 24 hours

 ConditionsComfort  
Time TempWeatherWind HumidityBarometerVisibility
9:55 AM
Tue, Apr 28
58 °FPassing clouds.No wind30%30.06 "Hg10 mi
8:55 AM54 °FScattered clouds.No wind37%30.08 "Hg10 mi
7:55 AM48 °FScattered clouds.No wind48%30.09 "Hg10 mi
6:55 AM45 °FPassing clouds.3 mph51%30.09 "Hg10 mi
5:55 AM45 °FPassing clouds.3 mph51%30.08 "Hg10 mi
4:55 AM46 °FPassing clouds.7 mph50%30.08 "Hg10 mi
3:55 AM47 °FClear.No wind48%30.08 "Hg10 mi
2:55 AM48 °FClear.7 mph46%30.08 "Hg10 mi
1:55 AM49 °FClear.3 mph44%30.09 "Hg10 mi
12:55 AM51 °FClear.5 mph42%30.09 "Hg10 mi
11:55 PM
Mon, Apr 27
54 °FClear.3 mph35%30.08 "Hg10 mi
10:55 PM57 °FPassing clouds.3 mph31%30.07 "Hg10 mi
9:55 PM59 °FPassing clouds.6 mph27%30.08 "Hg10 mi
8:55 PM62 °FPassing clouds.7 mph23%30.08 "Hg10 mi
7:55 PM64 °FPassing clouds.6 mph21%30.06 "Hg10 mi
6:55 PM68 °FPassing clouds.9 mph17%30.06 "Hg10 mi
5:55 PM69 °FPassing clouds.10 mph16%30.06 "Hg10 mi
4:55 PM69 °FPassing clouds.8 mph16%30.06 "Hg10 mi
3:55 PM70 °FScattered clouds.13 mph17%30.08 "Hg10 mi
2:55 PM70 °FScattered clouds.12 mph18%30.10 "Hg10 mi
1:55 PM67 °FScattered clouds.12 mph20%30.12 "Hg10 mi
12:55 PM65 °FScattered clouds.5 mph22%30.14 "Hg10 mi
11:55 AM64 °FScattered clouds.14 mph23%30.16 "Hg10 mi
Weather by CustomWeather, © 2015

See weather overviewHow to use our weather pages